[[{"header":{"parameterUnit":"m.s-1","parameterCategory":1,"la1":30.2992,"la2":30.254,"lo1":-89.0895,"lo2":-89.0443,"dy":0.0025,"dx":0.0025,"nx":19,"ny":19,"refTime":"2026-05-23T03:00:00:Z","depth":0,"parameterNumber":2,"parameterNumberName":"U-component_of_WINDS"},"data":[0,0,0,-0.1549,-0.1553,-0.1766,-0.1767,-0.2029,-0.2031,0,0,0,0,0,0,0,0,0,0,0,-0.1478,-0.148,-0.1548,-0.1553,-0.1766,-0.1767,-0.2029,-0.2031,0,0,0,0,0,0,0,0,0,0,0,-0.1478,-0.148,-0.1481,-0.1554,-0.1765,-0.1767,-0.2028,-0.1872,0,0,0,0,0,0,0,0,0,0,-0.1667,-0.1595,-0.1479,-0.1482,-0.1555,-0.1765,-0.1767,-0.1864,-0.1881,-0.1928,0,-0.1967,0,-0.2003,-0.2048,-0.2049,0,0,0,-0.1559,-0.1581,-0.1644,-0.1482,-0.1557,-0.1765,-0.1671,-0.1874,-0.1893,-0.1951,-0.1971,-0.1981,-0.2007,-0.205,-0.2051,-0.2298,-0.2299,0,0,-0.1547,-0.1514,-0.163,-0.1656,-0.1621,-0.1665,-0.1678,-0.1886,-0.1906,-0.1972,-0.1987,-0.2012,-0.2051,-0.2053,-0.2297,-0.2298,0,0,0,-0.151,-0.1505,-0.1564,-0.1645,-0.1684,-0.1671,-0.1686,-0.1897,-0.1918,-0.199,-0.2015,-0.2053,-0.2056,-0.2296,-0.2297,-0.2307,0,0,0,-0.1503,-0.1483,-0.1558,-0.154,-0.168,-0.1793,-0.1692,-0.1904,-0.1929,-0.2013,-0.2053,-0.2058,-0.2295,-0.2297,-0.2305,-0.2319,0,0,0,-0.1467,-0.1479,-0.1507,-0.1537,-0.1627,-0.179,-0.1824,-0.191,-0.1943,-0.2049,-0.2059,-0.2295,-0.2297,-0.2303,-0.2315,-0.2373,0,0,0,-0.142,-0.1514,-0.1507,-0.1622,-0.1625,-0.1793,-0.1823,-0.1951,-0.2043,-0.2054,-0.2295,-0.2297,-0.2302,-0.2313,-0.2371,-0.2417,-0.2432,0,0,-0.152,-0.1525,-0.1596,-0.1595,-0.1756,-0.1764,-0.1927,-0.2045,-0.2087,-0.2225,-0.2232,-0.2306,-0.2315,-0.2373,-0.2529,-0.2541,0,0,0,-0.1616,-0.1666,-0.1716,-0.1801,-0.1891,-0.197,-0.2065,-0.2109,-0.2228,-0.215,-0.2343,-0.235,-0.2385,-0.2409,-0.2419,-0.2452,-0.2306,-0.2306,-0.2306,-0.1712,-0.1758,-0.1878,-0.1949,-0.2031,-0.2127,-0.2198,-0.2273,-0.2298,-0.2342,-0.2385,-0.2473,-0.25,-0.2508,-0.2541,-0.2412,-0.2412,-0.2412,-0.2412,-0.1864,-0.1943,-0.197,-0.2096,-0.2145,-0.2252,-0.2348,-0.2361,-0.2469,-0.2446,-0.248,-0.2452,-0.2519,-0.2551,-0.2413,-0.2413,-0.2413,-0.2412,-0.2412,-0.1933,-0.1979,-0.2028,-0.2154,-0.2246,-0.2315,-0.2416,-0.2457,-0.2497,-0.253,-0.2579,-0.2579,-0.2585,-0.255,-0.255,-0.2551,-0.2551,-0.2551,-0.2551,-0.1985,-0.204,-0.2119,-0.2221,-0.228,-0.2363,-0.2459,-0.2519,-0.2595,-0.2618,-0.2618,-0.2638,-0.2516,-0.2485,-0.2556,-0.2555,-0.2555,-0.2554,-0.2554,-0.2125,-0.2099,-0.2221,-0.228,-0.2402,-0.2491,-0.2541,-0.2658,-0.2714,-0.2762,-0.2775,-0.2677,-0.2686,-0.2678,-0.2653,-0.2763,-0.2763,-0.2763,-0.2763,-0.2183,-0.2191,-0.2324,-0.2415,-0.2509,-0.2566,-0.2704,-0.2778,-0.2852,-0.2889,-0.2879,-0.2848,-0.2838,-0.2854,-0.2842,-0.2819,-0.2969,-0.2969,-0.297,-0.2272,-0.229,-0.2399,-0.2468,-0.2566,-0.265,-0.2781,-0.2885,-0.2963,-0.2979,-0.2919,-0.2911,-0.2862,-0.2843,-0.2859,-0.284,-0.2799,0,0]},{"header":{"parameterUnit":"m.s-1","parameterCategory":1,"la1":30.2992,"la2":30.254,"lo1":-89.0895,"lo2":-89.0443,"dy":0.0025,"dx":0.0025,"nx":19,"ny":19,"refTime":"2026-05-23T03:00:00:Z","depth":0,"parameterNumber":3,"parameterNumberName":"V-component_of_WINDS"},"data":[0,0,0,-0.7061,-0.7057,-0.6847,-0.6846,-0.6609,-0.6608,0,0,0,0,0,0,0,0,0,0,0,-0.7144,-0.7143,-0.7061,-0.7056,-0.6847,-0.6846,-0.661,-0.6607,0,0,0,0,0,0,0,0,0,0,0,-0.7144,-0.7143,-0.7142,-0.7056,-0.6847,-0.6846,-0.661,-0.6756,0,0,0,0,0,0,0,0,0,0,-0.6954,-0.7053,-0.7144,-0.7142,-0.7055,-0.6848,-0.6846,-0.6763,-0.6747,-0.6718,0,-0.6701,0,-0.6651,-0.6594,-0.6593,0,0,0,-0.704,-0.7066,-0.6991,-0.7142,-0.7053,-0.6848,-0.6937,-0.6754,-0.6736,-0.6698,-0.6697,-0.6687,-0.6647,-0.6593,-0.6592,-0.6487,-0.6488,0,0,-0.7051,-0.7117,-0.7003,-0.698,-0.7017,-0.6944,-0.6931,-0.6743,-0.6745,-0.6696,-0.6681,-0.6643,-0.6591,-0.659,-0.6487,-0.6487,0,0,0,-0.7096,-0.7126,-0.7054,-0.6991,-0.6951,-0.6938,-0.6923,-0.6753,-0.6724,-0.6678,-0.664,-0.659,-0.6588,-0.6487,-0.6487,-0.6569,0,0,0,-0.7102,-0.7152,-0.706,-0.7098,-0.6955,-0.685,-0.6938,-0.6737,-0.6714,-0.6641,-0.659,-0.6586,-0.6486,-0.6487,-0.6565,-0.6596,0,0,0,-0.715,-0.7157,-0.7134,-0.7102,-0.7015,-0.6851,-0.6811,-0.6731,-0.6692,-0.6593,-0.6585,-0.6486,-0.6487,-0.6563,-0.6591,-0.659,0,0,0,-0.722,-0.7207,-0.7137,-0.7107,-0.7017,-0.6904,-0.6812,-0.6723,-0.6648,-0.6589,-0.6486,-0.6487,-0.6562,-0.6588,-0.6588,-0.6603,-0.6615,0,0,-0.724,-0.7212,-0.7189,-0.712,-0.7037,-0.693,-0.6857,-0.6724,-0.6652,-0.6546,-0.6542,-0.6566,-0.6591,-0.6589,-0.6655,-0.6666,0,0,0,-0.7218,-0.7203,-0.7166,-0.71,-0.7,-0.6916,-0.6788,-0.6739,-0.6646,-0.6612,-0.6562,-0.6574,-0.6571,-0.6575,-0.6584,-0.6577,-0.6491,-0.6491,-0.6491,-0.7342,-0.7253,-0.721,-0.7098,-0.7033,-0.6902,-0.6842,-0.6753,-0.6679,-0.6669,-0.6638,-0.6689,-0.6697,-0.6703,-0.6697,-0.6637,-0.6637,-0.6637,-0.6637,-0.7365,-0.7331,-0.7236,-0.7161,-0.7067,-0.7002,-0.6874,-0.6825,-0.675,-0.6705,-0.6697,-0.6658,-0.6717,-0.6707,-0.6643,-0.6642,-0.6641,-0.664,-0.664,-0.7439,-0.7407,-0.7349,-0.7244,-0.7173,-0.7056,-0.699,-0.6905,-0.6824,-0.6816,-0.6775,-0.6774,-0.6763,-0.6802,-0.6803,-0.6803,-0.6803,-0.6803,-0.6803,-0.754,-0.7471,-0.7427,-0.7321,-0.7268,-0.7186,-0.7054,-0.6998,-0.6914,-0.6857,-0.6857,-0.6787,-0.6738,-0.673,-0.6805,-0.6805,-0.6805,-0.6804,-0.6804,-0.7601,-0.7574,-0.7506,-0.7453,-0.7321,-0.7257,-0.7149,-0.7043,-0.6984,-0.6954,-0.6884,-0.6862,-0.6826,-0.6818,-0.6811,-0.6903,-0.6903,-0.6903,-0.6903,-0.7666,-0.7639,-0.7551,-0.7473,-0.7385,-0.7281,-0.7206,-0.7103,-0.6991,-0.6949,-0.6922,-0.6904,-0.69,-0.6866,-0.6857,-0.6849,-0.6949,-0.6949,-0.6949,-0.7699,-0.7661,-0.7615,-0.7508,-0.7399,-0.7307,-0.7234,-0.7145,-0.7012,-0.6949,-0.6914,-0.6912,-0.6881,-0.6876,-0.6815,-0.6804,-0.6786,0,0]}]]